| time (UTC) | temp F | wind direction | speed MPH | gust MPH | rain 1hr in | rain 24hr in | rain mn in | humidity % | barometer mb |
| 20260905203227 | 66 | 259 | 0.0 | 3.0 | 0.00 | 0.06 | 0.06 | 66 | 1020.7 |
| 20260905202228 | 66 | 259 | 1.0 | 2.0 | 0.00 | 0.06 | 0.06 | 64 | 1020.7 |
| 20260905201225 | 66 | 259 | 1.0 | 2.0 | 0.00 | 0.06 | 0.06 | 64 | 1020.7 |
| 20260905200439 | 67 | 259 | 1.0 | 2.0 | 0.00 | 0.06 | 0.06 | 63 | 1020.7 |
| 20260905195225 | 67 | 259 | 0.0 | 3.0 | 0.00 | 0.06 | 0.06 | 61 | 1020.7 |
| 20260905194439 | 67 | 259 | 0.0 | 2.0 | 0.00 | 0.06 | 0.06 | 59 | 1020.7 |
| 20260905193226 | 67 | 259 | 0.0 | 2.0 | 0.00 | 0.06 | 0.06 | 57 | 1020.3 |
| 20260905192441 | 68 | 259 | 0.0 | 1.0 | 0.00 | 0.06 | 0.06 | 55 | 1020.3 |
| 20260905191227 | 69 | 259 | 1.0 | 3.0 | 0.00 | 0.06 | 0.06 | 54 | 1020.3 |
| 20260905190225 | 69 | 259 | 0.0 | 2.0 | 0.00 | 0.06 | 0.06 | 53 | 1020.3 |
| 20260905185227 | 69 | 259 | 2.0 | 2.0 | 0.00 | 0.06 | 0.06 | 53 | 1020.0 |
| 20260905184227 | 70 | 259 | 0.0 | 2.0 | 0.00 | 0.06 | 0.06 | 52 | 1020.0 |
| 20260905183439 | 70 | 259 | 0.0 | 2.0 | 0.00 | 0.06 | 0.06 | 51 | 1019.6 |
| 20260905182225 | 70 | 259 | 0.0 | 2.0 | 0.00 | 0.06 | 0.06 | 51 | 1019.6 |
| 20260905181226 | 71 | 259 | 0.0 | 3.0 | 0.00 | 0.06 | 0.06 | 49 | 1019.6 |
| 20260905180225 | 71 | 261 | 0.0 | 3.0 | 0.00 | 0.06 | 0.06 | 49 | 1019.3 |
| 20260905175227 | 71 | 261 | 0.0 | 2.0 | 0.00 | 0.06 | 0.06 | 48 | 1019.0 |
| 20260905174226 | 72 | 261 | 0.0 | 7.0 | 0.00 | 0.06 | 0.06 | 47 | 1019.0 |
| 20260905173441 | 72 | 258 | 0.0 | 3.0 | 0.00 | 0.06 | 0.06 | 46 | 1019.0 |
| 20260905172225 | 73 | 257 | 1.0 | 8.0 | 0.00 | 0.06 | 0.06 | 46 | 1019.0 |
| 20260905171227 | 73 | 296 | 5.0 | 7.0 | 0.00 | 0.06 | 0.06 | 45 | 1019.0 |
| 20260905170227 | 74 | 256 | 1.0 | 9.0 | 0.00 | 0.06 | 0.06 | 45 | 1019.0 |
| 20260905165227 | 74 | 255 | 7.0 | 9.0 | 0.00 | 0.06 | 0.06 | 44 | 1018.6 |
| 20260905164225 | 75 | 313 | 1.0 | 6.0 | 0.00 | 0.06 | 0.06 | 42 | 1018.6 |
| 20260905163225 | 76 | 15 | 3.0 | 10.0 | 0.00 | 0.06 | 0.06 | 42 | 1018.6 |
| 20260905162225 | 76 | 9 | 3.0 | 12.0 | 0.00 | 0.06 | 0.06 | 41 | 1018.3 |
| 20260905161224 | 76 | 236 | 5.0 | 13.0 | 0.00 | 0.06 | 0.06 | 41 | 1018.3 |
| 20260905160227 | 77 | 13 | 1.0 | 8.0 | 0.00 | 0.06 | 0.06 | 42 | 1018.3 |
| 20260905155227 | 77 | 236 | 3.0 | 12.0 | 0.00 | 0.06 | 0.06 | 41 | 1018.3 |
| 20260905154225 | 77 | 213 | 2.0 | 11.0 | 0.00 | 0.06 | 0.06 | 42 | 1018.3 |
| 20260905153226 | 77 | 38 | 2.0 | 15.0 | 0.00 | 0.06 | 0.06 | 41 | 1018.3 |
| 20260905152439 | 77 | 9 | 2.0 | 11.0 | 0.00 | 0.06 | 0.06 | 41 | 1017.9 |
| 20260905151443 | 77 | 232 | 4.0 | 12.0 | 0.00 | 0.06 | 0.06 | 41 | 1018.3 |
| 20260905150227 | 77 | 355 | 8.0 | 11.0 | 0.00 | 0.06 | 0.06 | 41 | 1017.9 |
| 20260905145227 | 77 | 252 | 3.0 | 15.0 | 0.00 | 0.06 | 0.06 | 41 | 1018.3 |
| 20260905144439 | 77 | 15 | 1.0 | 13.0 | 0.00 | 0.06 | 0.06 | 41 | 1017.9 |
| 20260905143439 | 77 | 15 | 1.0 | 13.0 | 0.00 | 0.06 | 0.06 | 41 | 1017.9 |
| 20260905142438 | 77 | 275 | 2.0 | 9.0 | 0.00 | 0.06 | 0.06 | 42 | 1017.9 |
| 20260905141226 | 77 | 5 | 6.0 | 10.0 | 0.00 | 0.06 | 0.06 | 42 | 1017.9 |
| 20260905140224 | 77 | 195 | 3.0 | 14.0 | 0.00 | 0.06 | 0.06 | 41 | 1017.9 |
| 20260905135227 | 77 | 232 | 3.0 | 10.0 | 0.00 | 0.06 | 0.06 | 41 | 1018.3 |
| 20260905134441 | 77 | 241 | 4.0 | 11.0 | 0.00 | 0.06 | 0.06 | 42 | 1018.3 |
| 20260905133225 | 76 | 212 | 1.0 | 14.0 | 0.00 | 0.06 | 0.06 | 45 | 1018.3 |
| 20260905132441 | 76 | 11 | 9.0 | 14.0 | 0.00 | 0.06 | 0.06 | 44 | 1018.6 |
| 20260905131226 | 76 | 360 | 8.0 | 11.0 | 0.00 | 0.06 | 0.06 | 44 | 1018.3 |
| 20260905130228 | 77 | 233 | 4.0 | 11.0 | 0.00 | 0.06 | 0.06 | 46 | 1018.3 |
| 20260905125227 | 77 | 355 | 2.0 | 12.0 | 0.01 | 0.06 | 0.06 | 45 | 1018.3 |
| 20260905124440 | 78 | 51 | 4.0 | 13.0 | 0.01 | 0.06 | 0.06 | 44 | 1018.3 |
| 20260905123226 | 77 | 250 | 3.0 | 10.0 | 0.01 | 0.06 | 0.06 | 46 | 1018.3 |
| 20260905122227 | 77 | 239 | 4.0 | 11.0 | 0.01 | 0.06 | 0.06 | 46 | 1018.3 |
| 20260905121442 | 76 | 240 | 1.0 | 10.0 | 0.01 | 0.06 | 0.06 | 48 | 1018.3 |
| 20260905120225 | 74 | 17 | 3.0 | 12.0 | 0.01 | 0.06 | 0.06 | 50 | 1018.3 |
| 20260905115226 | 75 | 17 | 0.0 | 10.0 | 0.00 | 0.06 | 0.06 | 50 | 1018.3 |
| 20260905114227 | 74 | 267 | 2.0 | 13.0 | 0.00 | 0.06 | 0.06 | 52 | 1018.6 |
| 20260905113226 | 73 | 248 | 2.0 | 7.0 | 0.00 | 0.06 | 0.06 | 58 | 1018.3 |
| 20260905112439 | 72 | 264 | 4.0 | 11.0 | 0.00 | 0.06 | 0.06 | 63 | 1018.6 |
| 20260905111226 | 72 | 226 | 3.0 | 12.0 | 0.00 | 0.06 | 0.06 | 65 | 1018.6 |
| 20260905110227 | 70 | 211 | 1.0 | 7.0 | 0.00 | 0.06 | 0.06 | 71 | 1018.6 |
| 20260905105440 | 69 | 246 | 2.0 | 9.0 | 0.00 | 0.06 | 0.06 | 73 | 1019.0 |
| 20260905104225 | 69 | 206 | 3.0 | 11.0 | 0.00 | 0.06 | 0.06 | 72 | 1019.0 |
| 20260905103225 | 69 | 241 | 3.0 | 7.0 | 0.00 | 0.06 | 0.06 | 75 | 1019.0 |
| 20260905102441 | 67 | 246 | 3.0 | 10.0 | 0.00 | 0.06 | 0.06 | 77 | 1019.0 |
| 20260905101226 | 66 | 229 | 2.0 | 10.0 | 0.00 | 0.06 | 0.06 | 80 | 1019.0 |
| 20260905100226 | 66 | 202 | 4.0 | 6.0 | 0.00 | 0.06 | 0.06 | 82 | 1019.0 |
| 20260905095226 | 64 | 235 | 5.0 | 9.0 | 0.00 | 0.06 | 0.06 | 84 | 1019.0 |
| 20260905094439 | 64 | 209 | 3.0 | 9.0 | 0.00 | 0.06 | 0.06 | 86 | 1019.0 |
| 20260905093225 | 63 | 213 | 5.0 | 5.0 | 0.00 | 0.06 | 0.06 | 88 | 1019.3 |
| 20260905092226 | 62 | 233 | 3.0 | 5.0 | 0.01 | 0.06 | 0.06 | 89 | 1019.3 |
| 20260905091224 | 62 | 236 | 4.0 | 4.0 | 0.01 | 0.06 | 0.06 | 90 | 1019.3 |
| 20260905090226 | 61 | 238 | 0.0 | 2.0 | 0.01 | 0.06 | 0.06 | 90 | 1019.3 |
| 20260905085228 | 61 | 238 | 1.0 | 3.0 | 0.02 | 0.06 | 0.06 | 90 | 1019.3 |
| 20260905084224 | 60 | 238 | 3.0 | 7.0 | 0.02 | 0.06 | 0.06 | 89 | 1019.3 |
| 20260905083224 | 60 | 238 | 3.0 | 7.0 | 0.02 | 0.06 | 0.06 | 89 | 1019.3 |
| 20260905082225 | 60 | 226 | 0.0 | 4.0 | 0.02 | 0.06 | 0.06 | 89 | 1019.6 |
| 20260905081225 | 60 | 223 | 2.0 | 5.0 | 0.01 | 0.05 | 0.05 | 89 | 1019.0 |
| 20260905080225 | 60 | 208 | 3.0 | 8.0 | 0.01 | 0.05 | 0.05 | 88 | 1019.0 |
| 20260905075227 | 61 | 206 | 3.0 | 6.0 | 0.01 | 0.05 | 0.05 | 87 | 1018.6 |
| 20260905074225 | 61 | 201 | 2.0 | 4.0 | 0.01 | 0.04 | 0.04 | 86 | 1018.6 |
| 20260905073441 | 61 | 199 | 0.0 | 4.0 | 0.01 | 0.04 | 0.04 | 84 | 1019.0 |
| 20260905072227 | 61 | 200 | 0.0 | 6.0 | 0.01 | 0.04 | 0.04 | 83 | 1019.0 |
| 20260905071226 | 61 | 360 | 0.0 | 1.0 | 0.02 | 0.04 | 0.04 | 83 | 1019.0 |
| 20260905070225 | 61 | 360 | 0.0 | 4.0 | 0.02 | 0.04 | 0.04 | 84 | 1018.6 |
| 20260905065226 | 60 | 360 | 0.0 | 3.0 | 0.02 | 0.04 | 0.04 | 84 | 1018.6 |
| 20260905064225 | 60 | 221 | 0.0 | 3.0 | 0.02 | 0.03 | 0.03 | 86 | 1018.3 |
| 20260905063226 | 61 | 235 | 2.0 | 4.0 | 0.02 | 0.03 | 0.03 | 85 | 1019.3 |
| 20260905062225 | 61 | 12 | 0.0 | 1.0 | 0.03 | 0.03 | 0.03 | 84 | 1017.9 |
| 20260905061226 | 61 | 12 | 0.0 | 0.0 | 0.02 | 0.02 | 0.02 | 82 | 1018.3 |
| 20260905060227 | 62 | 12 | 0.0 | 0.0 | 0.02 | 0.02 | 0.02 | 79 | 1017.9 |
| 20260905055440 | 62 | 12 | 0.0 | 1.0 | 0.02 | 0.02 | 0.02 | 76 | 1018.3 |
| 20260905054227 | 63 | 12 | 0.0 | 5.0 | 0.02 | 0.02 | 0.02 | 70 | 1018.3 |
| 20260905053440 | 66 | 5 | 2.0 | 6.0 | 0.00 | 0.00 | 0.00 | 64 | 1018.3 |
| 20260905052227 | 66 | 15 | 2.0 | 4.0 | 0.00 | 0.00 | 0.00 | 58 | 1017.6 |
| 20260905051227 | 66 | 25 | 2.0 | 9.0 | 0.00 | 0.00 | 0.00 | 57 | 1017.3 |
| 20260905050225 | 67 | 17 | 1.0 | 5.0 | 0.00 | 0.00 | 0.00 | 56 | 1016.9 |
| 20260905045227 | 67 | 35 | 1.0 | 3.0 | 0.00 | 0.00 | 0.00 | 56 | 1016.6 |
| 20260905044439 | 67 | 38 | 1.0 | 3.0 | 0.00 | 0.00 | 0.00 | 55 | 1016.9 |
| 20260905043228 | 67 | 38 | 1.0 | 6.0 | 0.00 | 0.00 | 0.00 | 53 | 1016.6 |
| 20260905042225 | 68 | 51 | 2.0 | 13.0 | 0.00 | 0.00 | 0.00 | 55 | 1016.3 |
| 20260905041441 | 67 | 26 | 1.0 | 4.0 | 0.00 | 0.00 | 0.00 | 57 | 1015.9 |
| 20260905040225 | 67 | 37 | 0.0 | 1.0 | 0.00 | 0.00 | 0.00 | 61 | 1015.6 |
| 20260905035226 | 68 | 37 | 0.0 | 2.0 | 0.00 | 0.00 | 0.00 | 61 | 1015.6 |
| 20260905034439 | 68 | 43 | 1.0 | 5.0 | 0.00 | 0.00 | 0.00 | 60 | 1015.6 |
| 20260905033227 | 68 | 18 | 0.0 | 6.0 | 0.00 | 0.00 | 0.00 | 60 | 1015.6 |
| 20260905032225 | 68 | 355 | 2.0 | 6.0 | 0.00 | 0.00 | 0.00 | 59 | 1015.2 |
| 20260905031226 | 68 | 29 | 2.0 | 4.0 | 0.00 | 0.00 | 0.00 | 59 | 1014.6 |
| 20260905030227 | 69 | 32 | 3.0 | 4.0 | 0.00 | 0.00 | 0.00 | 59 | 1014.2 |
| 20260905025439 | 70 | 51 | 1.0 | 7.0 | 0.00 | 0.00 | 0.00 | 60 | 1014.2 |
| 20260905024225 | 71 | 349 | 0.0 | 9.0 | 0.00 | 0.00 | 0.00 | 61 | 1013.9 |
| 20260905023225 | 72 | 14 | 7.0 | 10.0 | 0.00 | 0.00 | 0.00 | 62 | 1013.5 |
| 20260905022226 | 74 | 22 | 1.0 | 11.0 | 0.00 | 0.00 | 0.00 | 59 | 1013.2 |
| 20260905021225 | 74 | 22 | 1.0 | 11.0 | 0.00 | 0.00 | 0.00 | 59 | 1013.2 |
| 20260905020223 | 75 | 226 | 0.0 | 0.0 | 0.00 | 0.00 | 0.00 | 58 | 1012.5 |
| 20260905015225 | 77 | 225 | 0.0 | 0.0 | 0.00 | 0.00 | 0.00 | 55 | 1012.2 |
| 20260905014225 | 78 | 246 | 0.0 | 0.0 | 0.00 | 0.00 | 0.00 | 49 | 1012.2 |
| 20260905013225 | 78 | 268 | 0.0 | 0.0 | 0.00 | 0.00 | 0.00 | 48 | 1012.2 |
| 20260905012227 | 78 | 236 | 0.0 | 0.0 | 0.00 | 0.00 | 0.00 | 48 | 1011.9 |
| 20260905011439 | 78 | 236 | 0.0 | 0.0 | 0.00 | 0.00 | 0.00 | 48 | 1011.9 |
| 20260905010225 | 78 | 236 | 0.0 | 0.0 | 0.00 | 0.00 | 0.00 | 48 | 1011.9 |
| 20260905005441 | 77 | 236 | 0.0 | 0.0 | 0.00 | 0.00 | 0.00 | 47 | 1011.9 |
| 20260905004227 | 77 | 236 | 0.0 | 0.0 | 0.00 | 0.00 | 0.00 | 48 | 1011.9 |
| 20260905003227 | 77 | 236 | 0.0 | 0.0 | 0.00 | 0.00 | 0.00 | 48 | 1011.5 |
| 20260905002225 | 77 | 236 | 0.0 | 0.0 | 0.00 | 0.00 | 0.00 | 48 | 1011.5 |
| 20260905001225 | 77 | 238 | 0.0 | 0.0 | 0.00 | 0.00 | 0.00 | 48 | 1011.5 |
| 20260905000226 | 76 | 240 | 0.0 | 0.0 | 0.00 | 0.00 | 0.00 | 48 | 1011.5 |
| 20260904235225 | 76 | 240 | 0.0 | 0.0 | 0.00 | 0.00 | 0.00 | 49 | 1011.5 |
| 20260904234226 | 76 | 239 | 0.0 | 0.0 | 0.00 | 0.00 | 0.00 | 49 | 1011.5 |
| 20260904233225 | 76 | 266 | 0.0 | 0.0 | 0.00 | 0.00 | 0.00 | 49 | 1011.5 |
| 20260904232227 | 76 | 266 | 0.0 | 0.0 | 0.00 | 0.00 | 0.00 | 49 | 1011.2 |
| 20260904231227 | 76 | 267 | 0.0 | 0.0 | 0.00 | 0.00 | 0.00 | 49 | 1011.2 |
| 20260904230227 | 76 | 267 | 0.0 | 0.0 | 0.00 | 0.00 | 0.00 | 49 | 1011.2 |
| 20260904225224 | 76 | 267 | 0.0 | 0.0 | 0.00 | 0.00 | 0.00 | 49 | 1011.2 |
| 20260904224225 | 76 | 267 | 0.0 | 0.0 | 0.00 | 0.00 | 0.00 | 49 | 1011.2 |
| 20260904223226 | 74 | 267 | 0.0 | 0.0 | 0.00 | 0.00 | 0.00 | 51 | 1011.2 |
| 20260904222227 | 74 | 267 | 0.0 | 0.0 | 0.00 | 0.00 | 0.00 | 50 | 1011.2 |
| 20260904221225 | 74 | 267 | 0.0 | 0.0 | 0.00 | 0.00 | 0.00 | 50 | 1011.2 |
| 20260904220225 | 74 | 267 | 0.0 | 0.0 | 0.00 | 0.00 | 0.00 | 50 | 1011.2 |
| 20260904215439 | 75 | 267 | 0.0 | 0.0 | 0.00 | 0.00 | 0.00 | 49 | 1011.2 |
| 20260904214225 | 75 | 267 | 0.0 | 0.0 | 0.00 | 0.00 | 0.00 | 48 | 1011.2 |
| 20260904213225 | 75 | 267 | 0.0 | 0.0 | 0.00 | 0.00 | 0.00 | 48 | 1011.2 |
| 20260904212223 | 74 | 267 | 0.0 | 0.0 | 0.00 | 0.00 | 0.00 | 50 | 1011.2 |
| 20260904211227 | 72 | 267 | 0.0 | 0.0 | 0.00 | 0.00 | 0.00 | 54 | 1011.2 |
| 20260904210227 | 72 | 267 | 0.0 | 0.0 | 0.00 | 0.00 | 0.00 | 54 | 1011.2 |
| 20260904205226 | 72 | 267 | 0.0 | 1.0 | 0.00 | 0.00 | 0.00 | 54 | 1011.2 |
| 20260904204225 | 73 | 267 | 0.0 | 2.0 | 0.00 | 0.00 | 0.00 | 52 | 1011.2 |